Location: Ariel
(45.9570°N, 122.5700°W)
Time: 21:33:51
(UTC-07:00)

Altair - All Passes

Search period start: 20 July 2019 00:00
Search period end: 30 July 2019 00:00
Orbit: 1501 x 1683 km, 47.2° (Epoch: 19 July)

Date Brightness Start Highest point End Pass type
(mag) Time Alt. Az. Time Alt. Az. Time Alt. Az.
20 Jul - 11:45:35 10° S 11:53:09 30° SE 12:00:41 10° ENE daylight
20 Jul - 13:47:38 10° WSW 13:56:44 72° SSE 14:05:57 10° ENE daylight
20 Jul - 15:52:15 10° W 16:01:28 83° N 16:10:56 10° E daylight
20 Jul - 17:57:05 10° WNW 18:06:20 78° SSW 18:15:53 10° ESE daylight
20 Jul - 20:02:02 10° WNW 20:10:13 35° SW 20:18:38 10° SSE daylight
21 Jul - 11:20:49 10° S 11:28:07 27° SE 11:35:24 10° E daylight
21 Jul - 13:22:32 10° SW 13:31:36 69° SSE 13:40:46 10° ENE daylight
21 Jul - 15:27:04 10° W 15:36:17 83° N 15:45:43 10° E daylight
21 Jul - 17:31:56 10° WNW 17:41:11 81° SSW 17:50:43 10° ESE daylight
21 Jul - 19:36:49 10° WNW 19:45:08 38° SW 19:53:43 10° SSE daylight
22 Jul - 10:56:05 10° S 11:03:06 25° SE 11:10:05 10° E daylight
22 Jul - 12:57:27 10° SW 13:06:29 66° SSE 13:15:35 10° ENE daylight
22 Jul - 15:01:53 10° W 15:11:06 84° N 15:20:30 10° E daylight
22 Jul - 17:06:47 10° WNW 17:16:01 83° SSW 17:25:32 10° ESE daylight
22 Jul - 19:11:37 10° WNW 19:20:04 41° SW 19:28:46 10° SSE daylight
22 Jul - 21:21:39 10° WSW 21:22:47 10° WSW 21:23:56 10° SW visible
23 Jul - 10:31:24 10° S 10:38:05 23° SE 10:44:43 10° E daylight
23 Jul - 12:32:22 10° SW 12:41:23 63° SSE 12:50:24 10° ENE daylight
23 Jul - 14:36:43 10° W 14:45:55 84° N 14:55:17 10° E daylight
23 Jul - 16:41:37 10° WNW 16:50:52 86° SSW 17:00:21 10° ESE daylight
23 Jul - 18:46:26 10° WNW 18:54:59 44° SW 19:03:48 10° SSE daylight
23 Jul - 20:54:45 10° WSW 20:57:48 12° WSW 21:00:53 10° SW daylight
24 Jul - 10:06:46 10° S 10:13:05 21° SE 10:19:19 10° E daylight
24 Jul - 12:07:19 10° SW 12:16:17 59° SSE 12:25:14 10° ENE daylight
24 Jul - 14:11:32 10° W 14:20:45 85° N 14:30:05 10° E daylight
24 Jul - 16:16:28 10° WNW 16:25:42 88° SSW 16:35:09 10° ESE daylight
24 Jul - 18:21:14 10° WNW 18:29:54 46° SW 18:38:49 10° SSE daylight
24 Jul - 20:28:43 10° W 20:32:48 14° SW 20:36:56 10° SSW daylight
25 Jul - 09:42:13 10° SSE 09:48:04 19° SE 09:53:52 10° E daylight
25 Jul - 11:42:16 10° SW 11:51:11 56° SSE 12:00:03 10° ENE daylight
25 Jul - 13:46:21 10° W 13:55:35 87° N 14:04:53 10° E daylight
25 Jul - 15:51:18 10° WNW 16:00:32 90° S 16:09:57 10° ESE daylight
25 Jul - 17:56:04 10° WNW 18:04:48 50° SW 18:13:48 10° SE daylight
25 Jul - 20:02:58 10° W 20:07:48 15° SW 20:12:43 10° SSW daylight
26 Jul - 09:17:44 10° SSE 09:23:04 17° SE 09:28:20 10° E daylight
26 Jul - 11:17:15 10° SW 11:26:05 53° SE 11:34:52 10° ENE daylight
26 Jul - 13:21:10 10° WSW 13:30:25 88° N 13:39:42 10° E daylight
26 Jul - 15:26:07 10° W 15:35:21 89° N 15:44:46 10° ESE daylight
26 Jul - 17:30:53 10° WNW 17:39:43 53° SW 17:48:46 10° SE daylight
26 Jul - 19:37:22 10° W 19:42:47 17° SW 19:48:20 10° SSW daylight
27 Jul - 08:53:23 10° SSE 08:58:04 15° SE 09:02:43 10° E daylight
27 Jul - 10:52:14 10° SW 11:01:00 49° SE 11:09:41 10° ENE daylight
27 Jul - 12:56:01 10° WSW 13:05:15 90° E 13:14:31 10° ENE daylight
27 Jul - 15:00:58 10° W 15:10:11 87° N 15:19:33 10° E daylight
27 Jul - 17:05:43 10° WNW 17:14:37 56° SSW 17:23:43 10° SE daylight
27 Jul - 19:11:51 10° W 19:17:47 19° SW 19:23:50 10° SSW daylight
28 Jul - 08:29:12 10° SSE 08:33:05 13° SE 08:36:55 10° E daylight
28 Jul - 10:27:15 10° SSW 10:35:55 46° SE 10:44:30 10° ENE daylight
28 Jul - 12:30:50 10° WSW 12:40:05 88° SSE 12:49:20 10° ENE daylight
28 Jul - 14:35:47 10° W 14:45:00 86° N 14:54:21 10° E daylight
28 Jul - 16:40:33 10° WNW 16:49:30 59° SSW 16:58:39 10° SE daylight
28 Jul - 18:46:25 10° W 18:52:46 21° SW 18:59:15 10° S daylight
29 Jul - 08:05:21 10° SE 08:08:06 12° ESE 08:10:50 10° ESE daylight
29 Jul - 10:02:16 10° SSW 10:10:51 43° SE 10:19:18 10° ENE daylight
29 Jul - 12:05:40 10° WSW 12:14:55 86° SSE 12:24:09 10° ENE daylight
29 Jul - 14:10:36 10° W 14:19:50 85° N 14:29:09 10° E daylight
29 Jul - 16:15:23 10° WNW 16:24:23 62° SSW 16:33:35 10° SE daylight
29 Jul - 18:21:01 10° W 18:27:45 23° SW 18:34:37 10° S daylight
